www.pogodaiklimat.ru

Погода и климат >> Архив погоды >> Россия >> Якутия >> Усть-Мома


ПОГОДА в Усть-Моме

  • Прогноз погоды в Усть-Моме
  • Монитор погоды в Усть-Моме
  • Климат города

АРХИВ ПОГОДЫ в Усть-Моме

Время (UTC), дата Ветер
(напр.,м/с)
 
Видим.   Явления Облачность Т
(С)
Тd
(С)
f
(%)
Тe
(С)
Тes
(С)
Комфортность P
(гПа)
Po
(гПа)
Тmin
(С)
Tmax
(С)
R
(мм)
R24
(мм)
S
(см)
21 18.06 штиль 0 50 км 9/3 1500 м
[Cb cap Ci fib]
+13.6 +8.2 70 +13 +16 1011.4 988.2 +11.4
00 19.06 З 2 50 км 8/3 1500 м
[Cb cap Ac trans Ci fib]
+18.2 +9.0 55 +19 +23 1010.6 987.7
03 19.06 ЮЗ 2 50 км гроза без осадков 8/4 1500 м
[Cb cap Ci fib]
+22.0 +8.7 43 +23 +29 комфорт 1009.6 987.1
06 19.06 С 3 50 км гроза без осадков 9/6 1500 м
[Cb cap Ci fib]
+23.1 +8.2 38 +24 +26 комфорт 1008.0 985.6
09 19.06 ЮВ 2 50 км в посл. час гроза 8/4 1500 м
[Cb cap Ci fib]
+23.5 +6.1 33 +24 +25 комфорт 1007.4 985.1 +23.7 0.0
12 19.06 В 2 50 км 8/4 1500 м
[Cb cap Ac trans Ci fib]
+20.1 +8.1 46 +22 +22 комфорт 1008.0 985.3
15 19.06 штиль 0 50 км 6/0
[Ci fib]
+11.3 +8.9 85 +11 +11 1009.1 985.8
18 19.06 штиль 0 50 км 6/0
[Ci fib]
+9.7 +7.8 88 +9 +10 1010.1 986.6
21 19.06 50 км н/о +15.2 +8.3 63 +15 +18 1009.6 986.7 +9.7
00 20.06 Ю 1 50 км 1/1 1500 м
[Cu hum]
+20.8 +8.7 46 +23 +34 комфорт 1008.1 985.5
03 20.06 СЗ 1 50 км 5/4 1500 м
[Cu med, cong Ci fib]
+24.0 +7.2 34 +24 +32 комфорт 1006.1 983.8
06 20.06 СЗ 2 50 км 4/3 1500 м
[Cu med, cong Ci fib]
+25.6 +5.3 27 +25 +30 комфорт 1004.1 982.0
09 20.06 С 3 50 км 3/3 1500 м
[Cu hum Ci fib]
+25.2 +6.4 30 +25 +26 комфорт 1003.7 981.5 +25.8
12 20.06 С 1 50 км 3/1 1500 м
[Cu hum Ci fib]
+22.2 +9.2 43 +24 +24 комфорт 1004.0 981.7
15 20.06 СВ 2 50 км 4/1 1500 м
[Cu hum Ci fib]
+14.5 +7.4 62 +14 +14 1005.6 982.5
18 20.06 С 1 50 км 3/0
[Ci fib]
+12.4 +4.3 58 +13 +13 1006.8 983.5
21 20.06 СЗ 1 50 км 3/0
[Ci fib]
+16.3 +7.5 56 +17 +21 1006.5 983.5 +12.3
00 21.06 штиль 0 50 км 3/1 1500 м
[Cu hum Ci fib]
+21.0 +6.9 40 +22 +33 комфорт 1005.2 982.6
03 21.06 Ю 1 50 км 6/4 1500 м
[Cu med, cong Ci fib]
+24.8 +9.0 37 +25 +33 комфорт 1003.1 980.9
06 21.06 З 3 50 км 8/5 1500 м
[Cb cap Ci fib]
+27.0 +4.3 23 +26 +29 жарко 1002.1 980.1
09 21.06 Ю 3 50 км 8/5 1500 м
[Cb cap Ci fib]
+23.3 +7.5 36 +24 +25 комфорт 1003.4 981.1
12 21.06 штиль 0 50 км 4/3 1500 м
[Sc diur, vesp Ci fib]
+21.6 +8.1 42 +23 +23 комфорт 1004.1 981.6
15 21.06 штиль 0 50 км 4/1 1500 м
[Sc diur, vesp Ci fib]
+12.6 +8.6 77 +12 +12 1005.3 982.2
18 21.06 штиль 0 50 км 3/1 1500 м
[Sc diur, vesp Ci fib]
+11.1 +7.8 80 +11 +11 1007.0 983.7
21 21.06 штиль 0 50 км 3/0
[Ci fib]
+16.2 +8.4 60 +16 +21 1006.7 983.7 +11.1
00 22.06 ЮВ 1 50 км 4/3 1500 м
[Cu med, cong Ci fib]
+20.1 +10.6 54 +23 +30 комфорт 1005.6 983.0
03 22.06 З 3 50 км 6/6 1500 м
[Cu med, cong]
+26.7 +9.3 33 +27 +31 жарко 1003.9 981.9
06 22.06 штиль 0 50 км 4/3 1500 м
[Cu med, cong Ci fib]
+27.7 +5.0 23 +26 +33 жарко 1003.2 981.3
09 22.06 штиль 0 50 км 6/3 1500 м
[Cu med, cong Ac trans Ci fib]
+28.2 +8.0 28 +28 +29 жарко 1003.1 981.2 +28.5
12 22.06 штиль 0 50 км 4/3 1500 м
[Sc Ci fib]
+22.2 +14.8 63 +26 +26 душно 1004.3 982.0 +1.9
15 22.06 штиль 0 50 км 3/3 1500 м
[Sc Ci fib]
+14.1 +12.1 88 +14 +14 1006.5 983.4
18 22.06 штиль 0 50 км 3/3 1500 м
[Sc Ci fib]
+12.4 +9.7 84 +12 +12 1007.7 984.5
21 22.06 ЮВ 1 50 км 4/3 1500 м
[Sc Ac trans Ci fib]
+17.4 +10.3 63 +18 +21 1008.1 985.3 +12.4
00 23.06 СЗ 1 50 км 4/3 1500 м
[Cu med, cong Ci fib]
+22.9 +10.4 45 +25 +33 комфорт 1007.6 985.2
03 23.06 СЗ 1 50 км 4/3 1500 м
[Cu med, cong Ci fib]
+27.2 +9.9 34 +28 +37 жарко 1005.7 983.7
06 23.06 СЗ 3 50 км 6/3 1500 м
[Cb cap Ci fib]
+27.8 +10.5 34 +28 +32 жарко 1005.6 983.6
09 23.06 СЗ 5 50 км 8/6 1500 м
[Sc Ac trans Ci fib]
+25.6 +9.7 37 +26 +27 жарко 1006.3 984.1 +28.0
12 23.06 Ю 1 50 км 10/4 1500 м
[Cb cap Ci fib]
+21.7 +9.4 45 +26 +26 душно 1008.2 985.8
15 23.06 С 2 50 км 10/4 1500 м
[Cb cap Ci fib]
+18.0 +9.2 56 +19 +19 1009.2 986.4
18 23.06 СЗ 2 50 км 10/3 1500 м
[Sc Ci fib]
+15.9 +8.5 61 +16 +16 1009.9 986.9
21 23.06 СЗ 3 50 км 3/0
[Ci fib]
+17.5 +7.4 51 +18 +21 1010.0 987.2 +15.8
00 24.06 З 1 50 км 3/0
[Ci fib]
+22.1 +7.8 40 +23 +34 комфорт 1009.0 986.5
03 24.06 С 4 50 км 4/1 1500 м
[Cu hum Ci fib]
+24.8 +4.1 26 +24 +31 комфорт 1007.7 985.4
06 24.06 СЗ 5 50 км 3/0
[Ci fib]
+25.6 +1.9 21 +24 +28 комфорт 1006.2 983.9
09 24.06 СЗ 3 50 км 3/0
[Ci fib]
+24.8 +3.1 24 +24 +26 комфорт 1005.3 983.0 +25.9
12 24.06 СЗ 2 50 км 1/0
[Ci fib]
+21.5 +4.0 32 +22 +22 комфорт 1005.4 982.8
15 24.06 штиль 0 50 км ясно +13.0 +5.6 61 +13 +13 1006.3 983.1
18 24.06 штиль 0 50 км ясно +10.8 +5.1 68 +10 +11 1007.1 983.7
21 24.06 штиль 0 50 км ясно +16.2 +6.4 52 +16 +21 1005.9 982.9 +10.8
00 25.06 штиль 0 50 км 3/0
[Ci fib]
+21.4 +7.8 42 +22 +35 комфорт 1003.6 981.2
03 25.06 З 2 50 км 3/0
[Ci fib]
+25.2 +4.9 27 +25 +36 комфорт 1001.4 979.2
06 25.06 СЗ 3 50 км 8/0
[Ci fib]
+27.1 +6.7 27 +26 +32 жарко 999.5 977.5
09 25.06 С 3 50 км 6/0
[Ci fib]
+27.7 +6.6 26 +27 +29 жарко 998.1 976.3 +27.9
12 25.06 штиль 0 50 км 6/3 1500 м
[Sc diur, vesp Ci fib]
+23.0 +9.8 43 +25 +25 комфорт 998.6 976.3
15 25.06 штиль 0 50 км 6/3 1500 м
[Sc diur, vesp Ci fib]
+14.7 +9.5 71 +14 +14 999.3 976.5
18 25.06 С 2 50 км 8/6 1500 м
[Sc diur, vesp Ci fib]
+14.5 +6.1 57 +14 +14 1000.2 977.3

 

Местоположение метеостанции Усть-Мома (Якутия, Россия): широта 66.45 долгота 143.20 высота над уровнем моря 196 м.

В архиве по умолчанию представлена погода в Усть-Моме за последнюю неделю. Архивные данные за месяц целиком и за предыдущие месяцы, начиная с января 2011 года, Вы можете получить, выбрав интересующий диапазон дат из раскрывающегося списка и нажав кнопку "Ввод!".


*Определитесь, кто Вы:
робот инопланетянин человек

Внимание! Время в таблицах - всемирное. Для получения местного времени необходимо прибавить поправку, которая в Усть-Моме равна 11 ч.

Смотрите также архив погоды в соседних городах и на ближайших метеорологических станциях:

Погода в Усть-Нере (Якутия, Россия) (214 км)
Погода в Белой Горе (Якутия, Россия) (266 км)
Погода в Юртах (Якутия, Россия) (275 км)
Погода в Усть-Чарках (Якутия, Россия) (294 км)
Погода в Делянкире (Якутия, Россия) (312 км)
Погода в Агаякане (Якутия, Россия) (354 км)
Погода в Депутатском (Якутия, Россия) (355 км)
Погода в Оймяконе (Якутия, Россия) (356 км)
Погода в Зырянке (Якутия, Россия) (356 км)
Погода в Иэме (Якутия, Россия) (360 км)

Пояснения к столбцам:

Ветер - указаны скорость ветра в м/с - средняя за 10 мин, порывы в срок и между сроками (в фигурных скобках) и направление, откуда дует ветер: С - северный, СВ - северо-восточный, В - восточный, ЮВ - юго-восточный, Ю - южный, ЮЗ - юго-западный, З - западный, СЗ - северо-западный.
Видимость - горизонтальная дальность видимости в метрах или километрах. При видимости от 1 до 10 км при отсутствии осадков обычно наблюдается дымка, при ухудшении видимости до 1 км и менее - туман. В сухую погоду видимость может ухудшаться дымом, пылью или мглою.
Явления - указаны атмосферные явления, наблюдавшиеся в срок или в последний час перед сроком; фигурными скобками обозначены явления, наблюдавшиеся между сроками (за 1-3 часа до срока); квадратными скобками обозначены град или гололедные отложения с указанием их диаметра в мм.
Облачность - указаны через наклонную черту общая и нижняя облачность в баллах и высота нижней границы облаков в метрах; квадратными скобками обозначены формы облаков: Ci - перистые, Cs - перисто-слоистые, Cc - перисто-кучевые, Ac - высококучевые, As - высокослоистые, Sc - слоисто-кучевые, Ns - слоисто-дождевые, Cu - кучевые, Cb - кучево-дождевые. Подробнее классификацию облаков см. в Атласе облаков (PDF).
T - Температура воздуха - температура, измеренная на высоте 2 м над землей.
Td - Температура точки росы - температура, при понижении до которой содержащийся в воздухе водяной пар достигнет насыщения.
f - Относительная влажность воздуха - влажноcть воздуха, измеренная на высоте 2 м над землей.
Te - Эффективная температура - температура, которую ощущает одетый по сезону человек в тени. Характеристика душности погоды. При расчете учитывается влияние влажности воздуха и скорости ветра на теплоощущения человека.
Tes - Эффективная температура на солнце - температура, которую ощущает человек, с поправкой на солнечный нагрев. Характеристика знойности погоды. Зависит от высоты солнца над горизонтом, облачности и скорости ветра. Ночью, в пасмурную погоду, а также при ветре 12 м/с и более поправка равна нулю.
P - Атмосферное давление - приведенное к уровню моря атмосферное давление.
Po - Атмосферное давление - измеренное на уровне метеостанции атмосферное давление.
Tmin - Минимальная температура - минимум температуры воздуха на высоте 2 м над землей.
Tmax - Максимальная температура - максимум температуры воздуха на высоте 2 м над землей.
R - Количество осадков - Количество выпавших осадков за период времени, мм. При наведении курсора мыши на число - период времени, за который выпало указанное количество осадков.
R24 - Количество осадков - Количество выпавших осадков за 24 часа, мм.
S - Снежный покров - Высота снежного покрова, см. При наведении курсора мыши на число - состояние снежного покрова и степень покрытия местности в баллах.